Showing default

OPS 1509 (TRANSIT 10), 1864

Orbit data source: Space-Track

OPS 1509 (TRANSIT 10), 1864 is a payload satellite owned by USN BuWeps (US) in LEO that was launched on Wed, 22 Dec 1965 UTC via an SCOUT A launch vehicle from the Air Force Western Test Range (AFWTR). Payload-class satellites include a variety of spacecraft equipped with specific instruments for various scientific and technological missions. These include communications satellites like Starlink; space stations such as the ISS; scientific satellites like the Hubble; Earth observation satellites from companies like Planet Labs, Umbra, and HawkEye 360; GPS; miniature CubeSats for education and research; and military/defense satellites.

Loading next visibility...
Identifier
1864, 1965-109A
Orbit
LEO
Last TLE update
6 hours ago
Origin
Manufacturer
APL
Mission
Defense Navigation
Bus & Motor
TRANSIT 5, Unknown motor
Mass
51 kg wet, 51 kg dry
Launch date (UTC)
1965-12-22 (60 years ago)
Launch vehicle
SCOUT A
Launch site
Air Force Western Test Range (AFWTR)
Object type
Payload
Rocket body
Debris
Shape & HBR
Oct Cyl + 4 Pan + 1 Rod, Unknown HBR
Radar Cross Section
7.565 m², Large (>1 m²)

Expand to show TLE details & history

TLE from 6 hours ago
0 OPS 1509 (TRANSIT 10)
1 01864U 65109A   25187.60323156  .00000145  00000-0  12396-3 0  9993
2 01864  89.0611 269.5960 0110207 181.4937 178.5917 13.78930731988473
Epoch: 2025-07-06T14:28Z
TLE epoch observation values (Epoch: 2025-07-06T14:28:39.206Z)
Latitude
-0.0001°
Longitude
127.60809°
Altitude
1,051.625 km
Speed
7.286 km/s
True Right ascension
17h 58m 23s
True Declination
0° 00' 00"
Sunlit
Object was in full shadow at epoch
Visualization orbit readout
Latitude
73.08756°
Longitude
130.65859°
Altitude
1,004.204 km
Speed
7.344 km/s
Apparent Right ascension
19h 29m 20s
Apparent Declination
23° 22' 24"
Sunlit
Object is in daylight
Visualization observer readout
Local Sidereal Time
08:03:24
Azimuth
8.715° NNE
Elevation
-26.214°
Doppler factor
1
Orbital elements
Apogee altitude
1,045.614 km
Perigee altitude
883.768 km
Semi-major axis
7,342.828 km
Eccentricity
0.01102
Inclination
89.0611°
RAAN
269.596°
Arg. of periapsis
181.4937°
True anomaly
Unknown
Mean anomaly
178.5917°
Eccentric anomaly
Unknown
Mean motion
3.44944 °/min
Orbital period
104.36 mins
BSTAR
0.00012396
Loading maneuver chart data...
Loading SW <> Apogee altitude chart data...
Loading historical data...
Loading historical data...
Loading historical data...
Loading historical data...
Loading historical data...
Loading historical data...
Loading historical data...

OPS 1509 (TRANSIT 10) Visibility forecast

Observer location: undefined°, undefined°

Span
Click to sort rows by Start time (UTC) header in descending order
Start Az.
Max El. time (UTC)
Max El. Az.
Max El.
End time (UTC)
End Az.
8 mins2025-07-07 04:32:39.598Z118.695° SE2025-07-07 04:36:39.598Z80.01° E19.015°2025-07-07 04:40:39.598Z36.585° NE
11 mins2025-07-07 06:15:39.598Z193.105° SSW2025-07-07 06:20:39.598Z260.758° W41.524°2025-07-07 06:26:39.598Z351.203° N
9 mins2025-07-07 17:12:39.598Z19.466° NNE2025-07-07 17:16:39.598Z79.968° E35.384°2025-07-07 17:21:39.598Z155.988° SSE
7 mins2025-07-07 18:57:39.598Z323.983° NNW2025-07-07 19:00:39.598Z286.745° WNW21.273°2025-07-07 19:04:39.598Z237.91° WSW
|